Crest Hill, IL

7:57 AM CST on December 07, 2016 (GMT -0600)
Lewis University

Weather History for KLOT - November, 2013

Change the Weather History Date:

Friday, November 1, 2013

  Actual Average Record
Temperature  
Mean Temperature 45 °F 47 °F  
Max Temperature 48 °F 56 °F 76 °F (2000)
Min Temperature 42 °F 39 °F 23 °F (1996)
Degree Days  
Heating Degree Days 20 18  
Month to date heating degree days 20 18  
Since 1 July heating degree days 492 505  
Cooling Degree Days 0 0  
Month to date cooling degree days 0 0  
Year to date cooling degree days 950 862  
Moisture  
Dew Point 41 °F    
Average Humidity 86    
Maximum Humidity 96    
Minimum Humidity 74    
Precipitation  
Precipitation 0.00 in 0.12 in 1.43 in (1992)
Month to date precipitation 0.00 0.12  
Year to date precipitation 36.48 34.48  
Snow  
Snow 0.00 in 0.00 in 0.00 in (2011)
Month to date snowfall 0.0 0.0  
Since 1 July snowfall T 0.0  
Since 1 September snowfall T 0.0  
Snow Depth 0.00 in    
Sea Level Pressure  
Sea Level Pressure 29.60 in    
Wind  
Wind Speed 13 mph (West)    
Max Wind Speed 21 mph    
Max Gust Speed 29 mph    
Visibility 8 miles    
Events Rain    
T = Trace of Precipitation, MM = Missing Value Source: NWS Daily Summary

Daily Weather History Graph

Daily Weather History Graph

Search for Another Location

Airport or City:

Trip Planner

Search our weather history database for the weather conditions in past years. The results will help you decide how hot, cold, wet, or windy it might be!

Date:

Astronomy

Nov. 01, 2013 Rise Set
Actual Time 7:24 AM CDT 5:46 PM CDT
Civil Twilight 6:55 AM CDT 6:15 PM CDT
Nautical Twilight 6:22 AM CDT 6:48 PM CDT
Astronomical Twilight 5:50 AM CDT 7:20 PM CDT
Moon 5:15 AM CDT (11/1) 4:40 PM CDT (11/1)
Length of Visible Light 11h 19m
Length of Day
10h 22m
Waning Crescent, 4% of the Moon is Illuminated
Nov 1
Waning Crescent
Nov 3
New
Nov 9
First Quarter
Nov 17
Full
Nov 25
Last Quarter

Hourly Weather History & Observations

Time (CDT) Temp. Windchill Dew Point Humidity Pressure Visibility Wind Dir Wind Speed Gust Speed Precip Events Conditions
12:15 AM 45.1 °F 38.1 °F 41.9 °F 88% 29.42 in 10.0 mi West 16.1 mph 23.0 mph N/A   Overcast
12:35 AM 45.0 °F 38.9 °F 42.3 °F 90% 29.43 in 10.0 mi West 12.7 mph 18.4 mph N/A   Overcast
12:55 AM 45.0 °F 36.9 °F 41.2 °F 87% 29.44 in 10.0 mi West 20.7 mph 28.8 mph N/A   Overcast
1:15 AM 43.7 °F 36.9 °F 39.6 °F 85% 29.45 in 10.0 mi West 13.8 mph 26.5 mph N/A   Scattered Clouds
1:35 AM 43.3 °F 36.5 °F 39.6 °F 87% 29.46 in 10.0 mi West 13.8 mph 23.0 mph N/A   Scattered Clouds
1:55 AM 43.7 °F 35.4 °F 39.7 °F 86% 29.46 in 10.0 mi West 19.6 mph 26.5 mph N/A   Mostly Cloudy
2:15 AM 43.2 °F 36.2 °F 39.4 °F 86% 29.46 in 10.0 mi West 13.8 mph 26.5 mph N/A   Overcast
2:35 AM 43.3 °F 35.5 °F 40.1 °F 88% 29.47 in 10.0 mi West 17.3 mph 24.2 mph N/A   Overcast
2:55 AM 43.3 °F 36.5 °F 40.1 °F 88% 29.48 in 10.0 mi West 13.8 mph 19.6 mph N/A   Overcast
3:15 AM 43.7 °F 36.9 °F 40.3 °F 88% 29.47 in 10.0 mi West 13.8 mph 23.0 mph N/A   Overcast
3:35 AM 43.7 °F 36.6 °F 40.1 °F 87% 29.47 in 10.0 mi West 15.0 mph 23.0 mph N/A   Overcast
3:55 AM 43.9 °F 36.5 °F 40.1 °F 87% 29.47 in 10.0 mi West 16.1 mph 20.7 mph N/A   Overcast
4:15 AM 44.1 °F 38.6 °F 40.1 °F 86% 29.49 in 10.0 mi West 10.4 mph 19.6 mph N/A   Overcast
4:35 AM 44.2 °F 39.2 °F 41.0 °F 88% 29.50 in 10.0 mi West 9.2 mph 16.1 mph N/A   Overcast
4:55 AM 44.6 °F 40.2 °F 41.7 °F 90% 29.51 in 7.0 mi West 8.1 mph - N/A   Overcast
5:15 AM 45.0 °F 40.6 °F 42.3 °F 90% 29.51 in 7.0 mi West 8.1 mph - N/A   Overcast
5:35 AM 45.0 °F 39.3 °F 41.7 °F 88% 29.51 in 7.0 mi West 11.5 mph 16.1 mph N/A   Overcast
5:55 AM 45.1 °F 38.4 °F 39.2 °F 80% 29.52 in 10.0 mi West 15.0 mph 20.7 mph N/A   Overcast
6:15 AM 45.0 °F 38.5 °F 39.4 °F 81% 29.53 in 10.0 mi West 13.8 mph 17.3 mph N/A   Overcast
6:35 AM 45.1 °F 39.9 °F 39.7 °F 81% 29.54 in 10.0 mi West 10.4 mph - N/A   Overcast
6:55 AM 45.5 °F 39.9 °F 41.0 °F 84% 29.55 in 10.0 mi WSW 11.5 mph 16.1 mph N/A   Overcast
7:15 AM 45.5 °F 38.9 °F 40.3 °F 82% 29.55 in 10.0 mi West 15.0 mph - N/A   Overcast
7:35 AM 45.5 °F 39.6 °F 39.2 °F 79% 29.55 in 10.0 mi West 12.7 mph 20.7 mph N/A   Overcast
7:55 AM 45.0 °F 38.5 °F 39.2 °F 80% 29.56 in 10.0 mi West 13.8 mph 19.6 mph N/A   Overcast
8:15 AM 45.0 °F 38.2 °F 38.1 °F 77% 29.57 in 10.0 mi West 15.0 mph 20.7 mph N/A   Overcast
8:35 AM 45.0 °F 39.3 °F 38.7 °F 79% 29.58 in 10.0 mi West 11.5 mph 18.4 mph N/A   Overcast
8:55 AM 45.5 °F 39.9 °F 39.0 °F 78% 29.58 in 10.0 mi West 11.5 mph - N/A   Overcast
9:15 AM 45.7 °F 40.6 °F 39.6 °F 79% 29.58 in 10.0 mi West 10.4 mph - N/A   Overcast
9:35 AM 46.2 °F 42.2 °F 39.7 °F 78% 29.58 in 10.0 mi West 8.1 mph - N/A   Overcast
9:55 AM 46.6 °F - 39.2 °F 75% 29.59 in 10.0 mi West 16.1 mph 20.7 mph N/A   Overcast
10:15 AM 46.6 °F - 39.7 °F 77% 29.59 in 10.0 mi West 15.0 mph 20.7 mph N/A   Overcast
10:35 AM 46.4 °F 40.7 °F 39.6 °F 77% 29.59 in 10.0 mi West 12.7 mph 17.3 mph N/A   Overcast
10:55 AM 46.8 °F - 40.1 °F 78% 29.60 in 10.0 mi West 11.5 mph - N/A   Overcast
11:15 AM 46.9 °F - 39.6 °F 76% 29.60 in 10.0 mi WNW 17.3 mph 20.7 mph N/A   Overcast
11:35 AM 46.9 °F - 39.7 °F 76% 29.61 in 10.0 mi West 13.8 mph 20.7 mph N/A   Overcast
11:55 AM 46.6 °F - 40.1 °F 78% 29.61 in 10.0 mi West 12.7 mph 19.6 mph N/A   Overcast
12:15 PM 47.3 °F - 39.7 °F 75% 29.61 in 10.0 mi West 11.5 mph 16.1 mph N/A   Overcast
12:35 PM 47.7 °F - 40.3 °F 76% 29.61 in 10.0 mi West 12.7 mph 19.6 mph N/A   Overcast
12:55 PM 48.2 °F - 40.1 °F 74% 29.61 in 10.0 mi West 16.1 mph 20.7 mph N/A   Overcast
1:15 PM 48.2 °F - 40.5 °F 75% 29.61 in 10.0 mi WNW 12.7 mph 18.4 mph N/A   Overcast
1:35 PM 47.7 °F - 40.1 °F 75% 29.61 in 10.0 mi West 12.7 mph 19.6 mph N/A   Overcast
1:55 PM 47.7 °F - 39.9 °F 75% 29.62 in 10.0 mi West 12.7 mph 18.4 mph N/A   Overcast
2:15 PM 47.5 °F - 40.1 °F 76% 29.62 in 10.0 mi West 15.0 mph 19.6 mph N/A   Overcast
2:35 PM 47.5 °F - 40.5 °F 77% 29.62 in 10.0 mi West 11.5 mph - N/A   Overcast
2:55 PM 47.3 °F - 40.6 °F 78% 29.63 in 10.0 mi West 11.5 mph 16.1 mph N/A   Overcast
3:15 PM 47.1 °F - 40.5 °F 78% 29.64 in 10.0 mi West 10.4 mph 17.3 mph N/A   Overcast
4:55 PM 44.8 °F 40.4 °F 42.8 °F 93% 29.67 in 4.0 mi West 8.1 mph - N/A Rain Light Rain
5:15 PM 44.8 °F 41.0 °F 43.0 °F 93% 29.67 in 5.0 mi West 6.9 mph - N/A   Light Drizzle
5:35 PM 45.0 °F 41.2 °F 42.8 °F 92% 29.68 in 7.0 mi West 6.9 mph - N/A   Light Drizzle
5:55 PM 45.0 °F 41.2 °F 42.8 °F 92% 29.69 in 7.0 mi West 6.9 mph - N/A Rain Light Rain
6:15 PM 44.8 °F 41.0 °F 42.8 °F 93% 29.70 in 7.0 mi West 6.9 mph - N/A Rain Rain
6:35 PM 44.8 °F 41.0 °F 43.0 °F 93% 29.71 in 7.0 mi West 6.9 mph - N/A Rain Light Rain
6:55 PM 44.8 °F 40.4 °F 43.3 °F 95% 29.71 in 5.0 mi West 8.1 mph - N/A   Drizzle
7:15 PM 44.8 °F 39.9 °F 43.3 °F 95% 29.72 in 7.0 mi West 9.2 mph - N/A   Drizzle
7:35 PM 44.8 °F 40.4 °F 43.5 °F 95% 29.72 in 5.0 mi West 8.1 mph - N/A   Drizzle
7:55 PM 44.8 °F 39.9 °F 43.7 °F 96% 29.73 in 5.0 mi West 9.2 mph - N/A Rain Light Rain
8:15 PM 44.8 °F 40.4 °F 43.7 °F 96% 29.73 in 5.0 mi West 8.1 mph - N/A Rain Rain
8:35 PM 45.0 °F 41.2 °F 43.7 °F 95% 29.73 in 5.0 mi West 6.9 mph - N/A Rain Light Rain
8:55 PM 45.0 °F 41.8 °F 43.9 °F 96% 29.73 in 5.0 mi West 5.8 mph - N/A Rain Light Rain
9:15 PM 45.0 °F 41.2 °F 43.9 °F 96% 29.73 in 4.0 mi West 6.9 mph - N/A   Drizzle
9:35 PM 45.0 °F 41.8 °F 43.9 °F 96% 29.74 in 5.0 mi West 5.8 mph - N/A   Overcast
9:55 PM 45.0 °F 41.2 °F 43.9 °F 96% 29.74 in 5.0 mi West 6.9 mph - N/A   Overcast
10:15 PM 45.0 °F 42.6 °F 43.9 °F 96% 29.75 in 5.0 mi West 4.6 mph - N/A   Overcast
10:35 PM 45.0 °F 42.6 °F 43.7 °F 95% 29.75 in 5.0 mi West 4.6 mph - N/A   Overcast
10:55 PM 44.6 °F 42.2 °F 43.5 °F 96% 29.75 in 5.0 mi West 4.6 mph - N/A   Overcast
11:15 PM 43.9 °F 40.5 °F 42.6 °F 95% 29.75 in 5.0 mi West 5.8 mph - N/A   Mostly Cloudy
11:35 PM 43.2 °F 40.5 °F 41.9 °F 95% 29.75 in 5.0 mi West 4.6 mph - N/A   Scattered Clouds
11:55 PM 42.3 °F 39.4 °F 41.2 °F 96% 29.75 in 5.0 mi West 4.6 mph - N/A   Clear